Location: Ballingbuur
(53.0000°N, 5.7667°E)
Time: 08:27:54
(UTC+00:00)

COSMOS 2251 DEB - Visible Passes

Search period start: 21 June 2021 00:00
Search period end: 01 July 2021 00:00
Orbit: 674 x 752 km, 74.0° (Epoch: 19 June)

Date Brightness Start Highest point End Pass type
(mag) Time Alt. Az. Time Alt. Az. Time Alt. Az.
21 Jun ? 00:24:20 10° N 00:27:05 15° NE 00:29:52 10° ENE visible
21 Jun ? 02:04:14 10° NNW 02:09:07 54° ENE 02:14:06 10° SE visible
22 Jun ? 01:10:59 10° NNW 01:15:21 29° NE 01:19:46 10° ESE visible
23 Jun ? 00:17:57 10° N 00:21:18 18° NE 00:24:41 10° E visible
23 Jun ? 01:58:06 10° NNW 02:03:06 71° ENE 02:08:11 10° SSE visible
23 Jun ? 23:25:30 10° NNE 23:27:02 11° NNE 23:28:33 10° NE visible
24 Jun ? 01:04:46 10° NNW 01:09:26 37° NE 01:14:08 10° ESE visible
25 Jun ? 00:11:39 10° N 00:15:29 22° NE 00:19:22 10° E visible
25 Jun ? 01:52:00 10° NNW 01:57:03 87° WSW 02:02:10 10° SSE visible
25 Jun ? 23:18:50 10° N 23:21:18 13° NE 23:23:46 10° ENE visible
26 Jun ? 00:58:36 10° NNW 01:03:28 48° ENE 01:08:23 10° SE visible
27 Jun ? 00:05:23 10° N 00:09:37 27° NE 00:13:55 10° ESE visible
27 Jun ? 01:45:57 10° NNW 01:50:57 67° WSW 01:56:02 10° SSE visible
27 Jun ? 23:12:24 10° N 23:15:32 16° NE 23:18:41 10° ENE visible
28 Jun ? 00:52:27 10° NNW 00:57:27 62° ENE 01:02:32 10° SE visible
28 Jun ? 22:20:16 10° NNE 22:21:11 10° NNE 22:22:08 10° NE visible
28 Jun ? 23:59:10 10° NNW 00:03:43 33° NE 00:08:20 10° ESE visible
29 Jun ? 01:39:57 10° NW 01:44:49 50° WSW 01:49:45 10° S visible
29 Jun ? 23:06:04 10° N 23:09:43 20° NE 23:13:26 10° E visible
30 Jun ? 00:46:20 10° NNW 00:51:25 82° ENE 00:56:34 10° SSE visible
30 Jun ? 22:13:21 10° N 22:15:29 12° NNE 22:17:37 10° ENE visible
